Tracking 28052 objects as of 24-Sep-2023
HD Live streaming from Space Station
objects crossing your sky now

THORAD DELTA 1 DEB

Track THORAD DELTA 1 DEB now!
10-day predictions


NORAD ID: 10392
Int'l Code: 1974-089EH
Perigee: 1,390.2 km
Apogee: 1,469.1 km
Inclination: 101.4 °
Period: 114.3 minutes
Semi major axis: 7800 km
RCS: 0.0162 m2 (small)
Launch date: November 15, 1974
Source: United States (US)
Launch site: AIR FORCE WESTERN TEST RANGE (AFWTR)

Note: This is SATELLITE DEBRIS
Your satellite tracking list
Your tracking list is empty




NASA's NSSDC Master Catalog

Two Line Element Set (TLE):
1 10392U 74089EH  23267.45387023 -.00000046  00000-0 -13225-4 0  9994
2 10392 101.3705 328.3689 0050611  93.0174  25.6701 12.60101874249242
Source of the keplerian elements: AFSPC